Time,TemperatureF,DewpointF,PressureIn,WindDirection,WindDirectionDegrees,WindSpeedMPH,WindSpeedGustMPH,Humidity,HourlyPrecipIn,Conditions,Clouds,dailyrainin,SoftwareType,DateUTC
2013-07-10 00:01:00,71.5,12.1,30.02,North,0,0.0,0.0,1,0.00,,,0.00,WUHU216HW,2013-07-10 05:01:00,
2013-07-10 00:06:00,71.3,12.0,30.02,North,0,0.0,0.0,1,0.00,,,0.00,WUHU216HW,2013-07-10 05:06:00,
2013-07-10 00:11:00,71.3,12.0,30.02,North,0,0.0,0.0,1,0.00,,,0.00,WUHU216HW,2013-07-10 05:11:00,
2013-07-10 00:16:00,71.3,12.0,30.01,North,0,0.0,0.0,1,0.00,,,0.00,WUHU216HW,2013-07-10 05:16:00,
2013-07-10 00:21:00,71.1,11.8,30.01,North,0,0.0,0.0,1,0.00,,,0.00,WUHU216HW,2013-07-10 05:21:00,
2013-07-10 00:26:00,71.1,11.8,30.02,North,0,0.0,0.0,1,0.00,,,0.00,WUHU216HW,2013-07-10 05:26:00,
2013-07-10 00:31:00,71.1,11.8,30.01,North,0,0.0,0.0,1,0.00,,,0.00,WUHU216HW,2013-07-10 05:31:00,
2013-07-10 00:36:00,70.9,11.7,30.01,North,0,0.0,0.0,1,0.00,,,0.00,WUHU216HW,2013-07-10 05:36:00,
2013-07-10 00:41:00,70.9,11.7,30.01,North,0,0.0,0.0,1,0.00,,,0.00,WUHU216HW,2013-07-10 05:41:00,
2013-07-10 00:46:00,70.9,11.7,30.01,North,0,0.0,0.0,1,0.00,,,0.00,WUHU216HW,2013-07-10 05:46:00,
2013-07-10 00:51:00,70.7,11.5,30.00,North,0,0.0,0.0,1,0.00,,,0.00,WUHU216HW,2013-07-10 05:51:00,
2013-07-10 00:56:00,70.7,11.5,30.00,North,0,0.0,0.0,1,0.00,,,0.00,WUHU216HW,2013-07-10 05:56:00,
2013-07-10 01:01:00,70.7,11.5,30.00,North,0,0.0,0.0,1,0.00,,,0.00,WUHU216HW,2013-07-10 06:01:00,
2013-07-10 01:06:00,70.6,11.3,30.00,North,0,0.0,0.0,1,0.00,,,0.00,WUHU216HW,2013-07-10 06:06:00,
2013-07-10 01:11:00,70.6,11.3,30.00,North,0,0.0,0.0,1,0.00,,,0.00,WUHU216HW,2013-07-10 06:11:00,
2013-07-10 01:16:00,70.6,11.3,29.99,North,0,0.0,0.0,1,0.00,,,0.00,WUHU216HW,2013-07-10 06:16:00,
2013-07-10 01:21:00,70.4,11.3,29.99,North,0,0.0,0.0,1,0.00,,,0.00,WUHU216HW,2013-07-10 06:21:00,
2013-07-10 01:26:00,70.4,11.3,29.99,North,0,0.0,0.0,1,0.00,,,0.00,WUHU216HW,2013-07-10 06:26:00,
2013-07-10 01:31:00,70.2,11.1,29.99,North,0,0.0,0.0,1,0.00,,,0.00,WUHU216HW,2013-07-10 06:31:00,
2013-07-10 01:36:00,70.2,11.1,29.99,North,0,0.0,0.0,1,0.00,,,0.00,WUHU216HW,2013-07-10 06:36:00,
2013-07-10 01:41:00,70.2,11.1,29.99,North,0,0.0,0.0,1,0.00,,,0.00,WUHU216HW,2013-07-10 06:41:00,
2013-07-10 01:46:00,70.2,11.1,29.99,North,0,0.0,0.0,1,0.00,,,0.00,WUHU216HW,2013-07-10 06:46:00,
2013-07-10 01:51:00,70.0,11.0,29.99,North,0,0.0,0.0,1,0.00,,,0.00,WUHU216HW,2013-07-10 06:51:00,
2013-07-10 01:56:00,70.0,11.0,29.99,North,0,0.0,0.0,1,0.00,,,0.00,WUHU216HW,2013-07-10 06:56:00,
2013-07-10 02:01:00,70.0,11.0,29.99,North,0,0.0,0.0,1,0.00,,,0.00,WUHU216HW,2013-07-10 07:01:00,
2013-07-10 02:06:00,70.0,11.0,29.99,North,0,0.0,0.0,1,0.00,,,0.00,WUHU216HW,2013-07-10 07:06:00,
2013-07-10 02:11:00,69.8,10.8,29.99,North,0,0.0,0.0,1,0.00,,,0.00,WUHU216HW,2013-07-10 07:11:00,
2013-07-10 02:16:00,69.8,10.8,29.99,North,0,0.0,0.0,1,0.00,,,0.00,WUHU216HW,2013-07-10 07:16:00,
2013-07-10 02:21:00,69.8,10.8,29.99,North,0,0.0,0.0,1,0.00,,,0.00,WUHU216HW,2013-07-10 07:21:00,
2013-07-10 02:26:00,69.8,10.8,29.99,North,0,0.0,0.0,1,0.00,,,0.00,WUHU216HW,2013-07-10 07:26:00,
2013-07-10 02:31:00,69.8,10.8,29.99,North,0,0.0,0.0,1,0.00,,,0.00,WUHU216HW,2013-07-10 07:31:00,
2013-07-10 02:36:00,69.7,10.7,29.99,North,0,0.0,0.0,1,0.00,,,0.00,WUHU216HW,2013-07-10 07:36:00,
2013-07-10 02:41:00,69.7,10.7,30.00,North,0,0.0,0.0,1,0.00,,,0.00,WUHU216HW,2013-07-10 07:41:00,
2013-07-10 02:46:00,69.7,10.7,29.99,North,0,0.0,0.0,1,0.00,,,0.00,WUHU216HW,2013-07-10 07:46:00,
2013-07-10 02:51:00,69.5,10.5,29.99,North,0,0.0,0.0,1,0.00,,,0.00,WUHU216HW,2013-07-10 07:51:00,
2013-07-10 02:56:00,69.5,10.5,29.98,North,0,0.0,0.0,1,0.00,,,0.00,WUHU216HW,2013-07-10 07:56:00,
2013-07-10 03:01:00,69.5,10.5,29.98,North,0,0.0,0.0,1,0.00,,,0.00,WUHU216HW,2013-07-10 08:01:00,
2013-07-10 03:06:00,69.5,10.5,29.99,North,0,0.0,0.0,1,0.00,,,0.00,WUHU216HW,2013-07-10 08:06:00,
2013-07-10 03:11:00,69.7,10.7,29.99,North,0,0.0,0.0,1,0.00,,,0.00,WUHU216HW,2013-07-10 08:11:00,
2013-07-10 03:16:00,69.8,10.8,29.99,North,0,0.0,0.0,1,0.00,,,0.00,WUHU216HW,2013-07-10 08:16:00,
2013-07-10 03:21:00,70.0,11.0,29.99,North,0,0.0,0.0,1,0.00,,,0.00,WUHU216HW,2013-07-10 08:21:00,
2013-07-10 03:26:00,70.2,11.1,29.99,North,0,0.0,0.0,1,0.00,,,0.00,WUHU216HW,2013-07-10 08:26:00,
2013-07-10 06:10:00,70.4,11.3,30.01,North,0,0.0,0.0,1,0.00,,,0.00,WUHU216HW,2013-07-10 11:10:00,
2013-07-10 06:15:00,70.4,11.3,30.00,North,0,0.0,0.0,1,0.00,,,0.00,WUHU216HW,2013-07-10 11:15:00,
2013-07-10 06:20:00,70.6,-21.0,30.00,North,0,0.0,0.0,1,0.00,,,0.00,WUHU216HW,2013-07-10 11:20:00,
2013-07-10 06:25:00,70.7,-20.9,30.00,North,0,0.0,0.0,1,0.00,,,0.00,WUHU216HW,2013-07-10 11:25:00,
2013-07-10 06:30:00,70.7,-20.9,30.00,North,0,0.0,0.0,1,0.00,,,0.00,WUHU216HW,2013-07-10 11:30:00,
2013-07-10 06:35:00,70.9,-20.8,30.00,North,0,0.0,0.0,1,0.00,,,0.00,WUHU216HW,2013-07-10 11:35:00,
2013-07-10 06:40:00,70.9,-20.8,30.00,North,0,0.0,0.0,1,0.00,,,0.00,WUHU216HW,2013-07-10 11:40:00,
2013-07-10 06:45:00,70.9,-20.8,30.00,North,0,0.0,0.0,1,0.00,,,0.00,WUHU216HW,2013-07-10 11:45:00,
2013-07-10 06:50:00,71.0,-20.7,30.00,North,0,0.0,0.0,1,0.00,,,0.00,WUHU216HW,2013-07-10 11:50:00,
2013-07-10 06:55:00,71.0,-20.7,30.00,North,0,0.0,0.0,1,0.00,,,0.00,WUHU216HW,2013-07-10 11:55:00,
2013-07-10 07:00:00,71.3,-20.5,30.00,North,0,0.0,0.0,1,0.00,,,0.00,WUHU216HW,2013-07-10 12:00:00,
2013-07-10 07:05:00,71.5,-20.4,30.00,North,0,0.0,0.0,1,0.00,,,0.00,WUHU216HW,2013-07-10 12:05:00,
2013-07-10 07:10:00,71.7,-20.2,30.00,North,0,0.0,0.0,1,0.00,,,0.00,WUHU216HW,2013-07-10 12:10:00,
2013-07-10 07:15:00,72.0,-20.1,30.00,North,0,0.0,0.0,1,0.00,,,0.00,WUHU216HW,2013-07-10 12:15:00,
2013-07-10 07:20:00,72.0,-20.1,30.00,North,0,0.0,0.0,1,0.00,,,0.00,WUHU216HW,2013-07-10 12:20:00,
2013-07-10 07:25:00,72.1,-20.0,30.00,North,0,0.0,0.0,1,0.00,,,0.00,WUHU216HW,2013-07-10 12:25:00,
2013-07-10 07:30:00,72.2,-20.0,30.00,North,0,0.0,0.0,1,0.00,,,0.00,WUHU216HW,2013-07-10 12:30:00,
2013-07-10 07:35:00,72.4,-19.8,30.00,North,0,0.0,0.0,1,0.00,,,0.00,WUHU216HW,2013-07-10 12:35:00,
2013-07-10 07:40:00,72.6,-19.7,30.00,North,0,0.0,0.0,1,0.00,,,0.00,WUHU216HW,2013-07-10 12:40:00,
2013-07-10 07:45:00,72.7,-19.6,30.00,North,0,0.0,0.0,1,0.00,,,0.00,WUHU216HW,2013-07-10 12:45:00,
2013-07-10 07:50:00,73.1,-19.4,30.01,North,0,0.0,0.0,1,0.00,,,0.00,WUHU216HW,2013-07-10 12:50:00,
2013-07-10 07:55:00,73.1,-19.3,30.00,North,0,0.0,0.0,1,0.00,,,0.00,WUHU216HW,2013-07-10 12:55:00,
2013-07-10 08:00:00,73.7,-19.0,30.00,North,0,0.0,0.0,1,0.00,,,0.00,WUHU216HW,2013-07-10 13:00:00,
2013-07-10 08:05:00,74.1,-18.7,30.00,North,0,0.0,0.0,1,0.00,,,0.00,WUHU216HW,2013-07-10 13:05:00,
2013-07-10 08:10:00,74.2,-18.7,30.00,North,0,0.0,0.0,1,0.00,,,0.00,WUHU216HW,2013-07-10 13:10:00,
2013-07-10 08:15:00,74.8,-18.3,30.00,North,0,0.0,0.0,1,0.00,,,0.00,WUHU216HW,2013-07-10 13:15:00,
2013-07-10 08:20:00,75.2,-18.1,30.01,North,0,0.0,0.0,1,0.00,,,0.00,WUHU216HW,2013-07-10 13:20:00,
2013-07-10 08:25:00,75.6,-17.8,30.01,North,0,0.0,0.0,1,0.00,,,0.00,WUHU216HW,2013-07-10 13:25:00,
2013-07-10 08:30:00,76.0,-17.5,30.00,North,0,0.0,0.0,1,0.00,,,0.00,WUHU216HW,2013-07-10 13:30:00,
2013-07-10 08:35:00,76.1,-17.4,30.01,North,0,0.0,0.0,1,0.00,,,0.00,WUHU216HW,2013-07-10 13:35:00,
2013-07-10 08:40:00,76.5,-17.2,30.00,North,0,0.0,0.0,1,0.00,,,0.00,WUHU216HW,2013-07-10 13:40:00,
2013-07-10 08:45:00,76.9,-16.9,30.00,North,0,0.0,0.0,1,0.00,,,0.00,WUHU216HW,2013-07-10 13:45:00,
2013-07-10 08:50:00,77.3,-16.7,30.00,North,0,0.0,0.0,1,0.00,,,0.00,WUHU216HW,2013-07-10 13:50:00,
2013-07-10 08:55:00,77.7,-16.4,30.00,North,0,0.0,0.0,1,0.00,,,0.00,WUHU216HW,2013-07-10 13:55:00,
2013-07-10 09:00:00,77.9,-16.3,30.00,North,0,0.0,0.0,1,0.00,,,0.00,WUHU216HW,2013-07-10 14:00:00,
2013-07-10 09:05:00,78.4,-16.0,30.00,North,0,0.0,0.0,1,0.00,,,0.00,WUHU216HW,2013-07-10 14:05:00,
2013-07-10 09:10:00,78.6,-15.9,30.00,North,0,0.0,0.0,1,0.00,,,0.00,WUHU216HW,2013-07-10 14:10:00,
2013-07-10 09:15:00,79.3,-15.4,30.00,North,0,0.0,0.0,1,0.00,,,0.00,WUHU216HW,2013-07-10 14:15:00,
2013-07-10 09:20:00,79.3,-15.4,30.00,North,0,0.0,0.0,1,0.00,,,0.00,WUHU216HW,2013-07-10 14:20:00,
2013-07-10 09:25:00,80.0,-15.0,30.00,North,0,0.0,0.0,1,0.00,,,0.00,WUHU216HW,2013-07-10 14:25:00,
2013-07-10 09:30:00,80.6,-14.6,30.01,North,0,0.0,0.0,1,0.00,,,0.00,WUHU216HW,2013-07-10 14:30:00,
2013-07-10 09:35:00,80.6,-14.6,30.01,North,0,0.0,0.0,1,0.00,,,0.00,WUHU216HW,2013-07-10 14:35:00,
2013-07-10 09:40:00,80.9,-14.4,30.01,North,0,0.0,0.0,1,0.00,,,0.00,WUHU216HW,2013-07-10 14:40:00,
2013-07-10 09:45:00,81.1,-14.3,30.00,North,0,0.0,0.0,1,0.00,,,0.00,WUHU216HW,2013-07-10 14:45:00,
2013-07-10 09:50:00,81.6,-14.0,30.00,North,0,0.0,0.0,1,0.00,,,0.00,WUHU216HW,2013-07-10 14:50:00,
2013-07-10 09:55:00,82.0,-13.7,30.01,North,0,0.0,0.0,1,0.00,,,0.00,WUHU216HW,2013-07-10 14:55:00,
2013-07-10 10:00:00,82.7,-13.3,30.01,North,0,0.0,0.0,1,0.00,,,0.00,WUHU216HW,2013-07-10 15:00:00,
2013-07-10 10:05:00,82.8,-13.1,30.01,North,0,0.0,0.0,1,0.00,,,0.00,WUHU216HW,2013-07-10 15:05:00,
2013-07-10 10:10:00,83.2,-12.9,30.01,North,0,0.0,0.0,1,0.00,,,0.00,WUHU216HW,2013-07-10 15:10:00,
2013-07-10 10:15:00,83.3,-12.8,30.01,North,0,0.0,0.0,1,0.00,,,0.00,WUHU216HW,2013-07-10 15:15:00,
2013-07-10 10:20:00,83.5,-12.7,30.01,North,0,0.0,0.0,1,0.00,,,0.00,WUHU216HW,2013-07-10 15:20:00,
2013-07-10 10:25:00,84.1,-12.4,30.01,North,0,0.0,0.0,1,0.00,,,0.00,WUHU216HW,2013-07-10 15:25:00,
2013-07-10 10:30:00,84.1,-12.3,30.01,North,0,0.0,0.0,1,0.00,,,0.00,WUHU216HW,2013-07-10 15:30:00,
2013-07-10 10:35:00,84.3,-12.2,30.01,North,0,0.0,0.0,1,0.00,,,0.00,WUHU216HW,2013-07-10 15:35:00,
2013-07-10 10:40:00,84.5,-12.1,30.00,North,0,0.0,0.0,1,0.00,,,0.00,WUHU216HW,2013-07-10 15:40:00,
2013-07-10 10:45:00,84.7,-12.0,30.01,North,0,0.0,0.0,1,0.00,,,0.00,WUHU216HW,2013-07-10 15:45:00,
2013-07-10 10:50:00,85.1,-11.7,30.01,North,0,0.0,0.0,1,0.00,,,0.00,WUHU216HW,2013-07-10 15:50:00,
2013-07-10 10:55:00,85.3,-11.6,30.01,North,0,0.0,0.0,1,0.00,,,0.00,WUHU216HW,2013-07-10 15:55:00,
2013-07-10 11:00:00,85.3,-11.6,30.01,North,0,0.0,0.0,1,0.00,,,0.00,WUHU216HW,2013-07-10 16:00:00,
2013-07-10 11:05:00,84.9,-11.9,30.00,North,0,0.0,0.0,1,0.00,,,0.00,WUHU216HW,2013-07-10 16:05:00,
2013-07-10 11:10:00,85.6,-11.4,30.00,North,0,0.0,0.0,1,0.00,,,0.00,WUHU216HW,2013-07-10 16:10:00,
2013-07-10 11:15:00,85.4,-11.5,30.00,North,0,0.0,0.0,1,0.00,,,0.00,WUHU216HW,2013-07-10 16:15:00,
2013-07-10 11:20:00,85.4,-11.5,30.00,North,0,0.0,0.0,1,0.00,,,0.00,WUHU216HW,2013-07-10 16:20:00,
2013-07-10 11:25:00,85.8,-11.2,30.00,North,0,0.0,0.0,1,0.00,,,0.00,WUHU216HW,2013-07-10 16:25:00,
2013-07-10 11:30:00,86.7,-10.7,29.99,North,0,0.0,0.0,1,0.00,,,0.00,WUHU216HW,2013-07-10 16:30:00,
2013-07-10 11:35:00,86.9,-10.6,29.99,North,0,0.0,0.0,1,0.00,,,0.00,WUHU216HW,2013-07-10 16:35:00,
2013-07-10 11:40:00,86.8,-10.6,29.98,North,0,0.0,0.0,1,0.00,,,0.00,WUHU216HW,2013-07-10 16:40:00,
2013-07-10 11:45:00,87.0,-10.5,29.98,North,0,0.0,0.0,1,0.00,,,0.00,WUHU216HW,2013-07-10 16:45:00,
2013-07-10 11:50:00,87.4,-10.2,29.98,North,0,0.0,0.0,1,0.00,,,0.00,WUHU216HW,2013-07-10 16:50:00,
2013-07-10 11:55:00,87.8,-10.0,29.97,North,0,0.0,0.0,1,0.00,,,0.00,WUHU216HW,2013-07-10 16:55:00,
2013-07-10 12:00:00,87.9,-9.9,29.96,North,0,0.0,0.0,1,0.00,,,0.00,WUHU216HW,2013-07-10 17:00:00,
2013-07-10 12:05:00,87.9,-9.9,29.96,North,0,0.0,0.0,1,0.00,,,0.00,WUHU216HW,2013-07-10 17:05:00,
2013-07-10 12:10:00,87.7,-10.1,29.96,North,0,0.0,0.0,1,0.00,,,0.00,WUHU216HW,2013-07-10 17:10:00,
2013-07-10 12:15:00,87.6,-10.1,29.96,North,0,0.0,0.0,1,0.00,,,0.00,WUHU216HW,2013-07-10 17:15:00,
2013-07-10 12:20:00,87.9,-9.9,29.95,North,0,0.0,0.0,1,0.00,,,0.00,WUHU216HW,2013-07-10 17:20:00,
2013-07-10 12:25:00,87.8,-10.0,29.95,North,0,0.0,0.0,1,0.00,,,0.00,WUHU216HW,2013-07-10 17:25:00,
2013-07-10 12:30:00,87.8,-10.0,29.95,North,0,0.0,0.0,1,0.00,,,0.00,WUHU216HW,2013-07-10 17:30:00,
2013-07-10 12:35:00,88.2,-9.7,29.94,North,0,0.0,0.0,1,0.00,,,0.00,WUHU216HW,2013-07-10 17:35:00,
2013-07-10 12:40:00,88.4,-9.6,29.93,North,0,0.0,0.0,1,0.00,,,0.00,WUHU216HW,2013-07-10 17:40:00,
2013-07-10 12:45:00,88.6,25.2,29.93,North,0,0.0,0.0,1,0.00,,,0.00,WUHU216HW,2013-07-10 17:45:00,
2013-07-10 12:50:00,88.9,25.4,29.93,North,0,0.0,0.0,1,0.00,,,0.00,WUHU216HW,2013-07-10 17:50:00,
2013-07-10 12:55:00,89.1,25.6,29.93,North,0,0.0,0.0,1,0.00,,,0.00,WUHU216HW,2013-07-10 17:55:00,
2013-07-10 13:00:00,89.1,25.6,29.93,North,0,0.0,0.0,1,0.00,,,0.00,WUHU216HW,2013-07-10 18:00:00,
2013-07-10 13:05:00,88.9,25.4,29.93,North,0,0.0,0.0,1,0.00,,,0.00,WUHU216HW,2013-07-10 18:05:00,
2013-07-10 13:10:00,88.7,25.3,29.93,North,0,0.0,0.0,1,0.00,,,0.00,WUHU216HW,2013-07-10 18:10:00,
2013-07-10 13:15:00,87.8,24.7,29.93,North,0,0.0,0.0,1,0.00,,,0.00,WUHU216HW,2013-07-10 18:15:00,
2013-07-10 13:20:00,87.3,24.2,29.93,North,0,0.0,0.0,1,0.00,,,0.00,WUHU216HW,2013-07-10 18:20:00,
2013-07-10 13:25:00,86.8,23.8,29.93,North,0,0.0,0.0,1,0.00,,,0.00,WUHU216HW,2013-07-10 18:25:00,
2013-07-10 13:30:00,86.6,23.7,29.93,North,0,0.0,0.0,1,0.00,,,0.00,WUHU216HW,2013-07-10 18:30:00,
2013-07-10 13:35:00,86.4,23.5,29.93,North,0,0.0,0.0,1,0.00,,,0.00,WUHU216HW,2013-07-10 18:35:00,
2013-07-10 13:40:00,86.0,23.2,29.93,North,0,0.0,0.0,1,0.00,,,0.00,WUHU216HW,2013-07-10 18:40:00,
2013-07-10 13:45:00,86.0,23.2,29.93,North,0,0.0,0.0,1,0.00,,,0.00,WUHU216HW,2013-07-10 18:45:00,
2013-07-10 13:50:00,85.9,23.0,29.93,North,0,0.0,0.0,1,0.00,,,0.00,WUHU216HW,2013-07-10 18:50:00,
2013-07-10 13:55:00,85.9,23.0,29.92,North,0,0.0,0.0,1,0.00,,,0.00,WUHU216HW,2013-07-10 18:55:00,
2013-07-10 14:00:00,86.0,23.2,29.92,North,0,0.0,0.0,1,0.00,,,0.00,WUHU216HW,2013-07-10 19:00:00,
2013-07-10 14:05:00,86.2,23.4,29.92,North,0,0.0,0.0,1,0.00,,,0.00,WUHU216HW,2013-07-10 19:05:00,
2013-07-10 14:10:00,86.0,23.2,29.92,North,0,0.0,0.0,1,0.00,,,0.00,WUHU216HW,2013-07-10 19:10:00,
2013-07-10 14:15:00,86.4,23.5,29.92,North,0,0.0,0.0,1,0.00,,,0.00,WUHU216HW,2013-07-10 19:15:00,
2013-07-10 14:20:00,86.2,23.4,29.91,North,0,0.0,0.0,1,0.00,,,0.00,WUHU216HW,2013-07-10 19:20:00,
2013-07-10 14:25:00,85.3,22.7,29.92,North,0,0.0,0.0,1,0.00,,,0.00,WUHU216HW,2013-07-10 19:25:00,
2013-07-10 14:30:00,84.8,22.2,29.91,North,0,0.0,0.0,1,0.00,,,0.00,WUHU216HW,2013-07-10 19:30:00,
2013-07-10 14:35:00,84.4,22.0,29.91,North,0,0.0,0.0,1,0.00,,,0.00,WUHU216HW,2013-07-10 19:35:00,
2013-07-10 14:40:00,83.7,21.4,29.92,North,0,0.0,0.0,1,0.00,,,0.00,WUHU216HW,2013-07-10 19:40:00,
2013-07-10 14:45:00,83.0,20.9,29.93,North,0,0.0,0.0,1,0.00,,,0.00,WUHU216HW,2013-07-10 19:45:00,
2013-07-10 14:50:00,82.3,20.3,29.93,North,0,0.0,0.0,1,0.00,,,0.00,WUHU216HW,2013-07-10 19:50:00,
2013-07-10 14:55:00,81.7,20.0,29.91,North,0,0.0,0.0,1,0.00,,,0.00,WUHU216HW,2013-07-10 19:55:00,
2013-07-10 15:00:00,81.4,19.6,29.92,North,0,0.0,0.0,1,0.00,,,0.00,WUHU216HW,2013-07-10 20:00:00,
2013-07-10 15:05:00,81.0,19.4,29.92,North,0,0.0,0.0,1,0.00,,,0.00,WUHU216HW,2013-07-10 20:05:00,
2013-07-10 15:10:00,80.5,18.9,29.92,North,0,0.0,0.0,1,0.00,,,0.00,WUHU216HW,2013-07-10 20:10:00,
2013-07-10 15:15:00,79.7,18.4,29.93,North,0,0.0,0.0,1,0.00,,,0.00,WUHU216HW,2013-07-10 20:15:00,
2013-07-10 15:20:00,79.2,17.9,29.93,North,0,0.0,0.0,1,0.00,,,0.00,WUHU216HW,2013-07-10 20:20:00,
2013-07-10 15:25:00,79.0,17.8,29.93,North,0,0.0,0.0,1,0.00,,,0.00,WUHU216HW,2013-07-10 20:25:00,
2013-07-10 15:30:00,78.5,17.4,29.94,North,0,0.0,0.0,1,0.00,,,0.00,WUHU216HW,2013-07-10 20:30:00,
2013-07-10 15:35:00,77.4,16.7,29.95,North,0,0.0,0.0,1,0.00,,,0.00,WUHU216HW,2013-07-10 20:35:00,
2013-07-10 15:40:00,77.0,16.4,29.95,North,0,0.0,0.0,1,0.00,,,0.00,WUHU216HW,2013-07-10 20:40:00,
2013-07-10 15:45:00,77.0,16.4,29.95,North,0,0.0,0.0,1,0.00,,,0.00,WUHU216HW,2013-07-10 20:45:00,
2013-07-10 15:50:00,76.9,16.2,29.94,North,0,0.0,0.0,1,0.00,,,0.00,WUHU216HW,2013-07-10 20:50:00,
2013-07-10 15:55:00,76.7,16.1,29.94,North,0,0.0,0.0,1,0.00,,,0.00,WUHU216HW,2013-07-10 20:55:00,
2013-07-10 16:00:00,76.3,15.9,29.95,North,0,0.0,0.0,1,0.00,,,0.00,WUHU216HW,2013-07-10 21:00:00,
2013-07-10 16:05:00,75.6,15.2,29.95,North,0,0.0,0.0,1,0.00,,,0.00,WUHU216HW,2013-07-10 21:05:00,
2013-07-10 16:10:00,75.2,14.9,29.96,North,0,0.0,0.0,1,0.00,,,0.00,WUHU216HW,2013-07-10 21:10:00,
2013-07-10 16:15:00,75.2,14.9,29.95,North,0,0.0,0.0,1,0.00,,,0.00,WUHU216HW,2013-07-10 21:15:00,
2013-07-10 16:20:00,75.1,14.9,29.94,North,0,0.0,0.0,1,0.00,,,0.00,WUHU216HW,2013-07-10 21:20:00,
2013-07-10 16:25:00,74.7,14.6,29.94,North,0,0.0,0.0,1,0.00,,,0.00,WUHU216HW,2013-07-10 21:25:00,
2013-07-10 16:30:00,74.3,14.3,29.94,North,0,0.0,0.0,1,0.00,,,0.00,WUHU216HW,2013-07-10 21:30:00,
2013-07-10 16:35:00,74.2,14.2,29.94,North,0,0.0,0.0,1,0.00,,,0.00,WUHU216HW,2013-07-10 21:35:00,
2013-07-10 16:40:00,74.2,14.2,29.94,North,0,0.0,0.0,1,0.00,,,0.00,WUHU216HW,2013-07-10 21:40:00,
2013-07-10 16:45:00,73.4,13.7,29.94,North,0,0.0,0.0,1,0.00,,,0.00,WUHU216HW,2013-07-10 21:45:00,
2013-07-10 16:50:00,73.4,13.7,29.93,North,0,0.0,0.0,1,0.00,,,0.00,WUHU216HW,2013-07-10 21:50:00,
2013-07-10 16:55:00,73.4,13.7,29.93,North,0,0.0,0.0,1,0.00,,,0.00,WUHU216HW,2013-07-10 21:55:00,
2013-07-10 17:00:00,73.1,13.4,29.93,North,0,0.0,0.0,1,0.00,,,0.00,WUHU216HW,2013-07-10 22:00:00,
2013-07-10 17:05:00,73.1,13.4,29.93,North,0,0.0,0.0,1,0.00,,,0.00,WUHU216HW,2013-07-10 22:05:00,
2013-07-10 17:10:00,72.9,13.2,29.93,North,0,0.0,0.0,1,0.00,,,0.00,WUHU216HW,2013-07-10 22:10:00,
2013-07-10 17:15:00,72.7,13.2,29.93,North,0,0.0,0.0,1,0.00,,,0.00,WUHU216HW,2013-07-10 22:15:00,
2013-07-10 17:20:00,72.5,13.0,29.93,North,0,0.0,0.0,1,0.00,,,0.00,WUHU216HW,2013-07-10 22:20:00,
2013-07-10 17:25:00,72.4,12.8,29.93,North,0,0.0,0.0,1,0.00,,,0.00,WUHU216HW,2013-07-10 22:25:00,
2013-07-10 17:30:00,72.4,12.8,29.93,North,0,0.0,0.0,1,0.00,,,0.00,WUHU216HW,2013-07-10 22:30:00,
2013-07-10 17:35:00,72.2,12.7,29.93,North,0,0.0,0.0,1,0.00,,,0.00,WUHU216HW,2013-07-10 22:35:00,
2013-07-10 17:40:00,72.0,12.5,29.93,North,0,0.0,0.0,1,0.00,,,0.00,WUHU216HW,2013-07-10 22:40:00,
2013-07-10 17:45:00,71.6,12.2,29.93,North,0,0.0,0.0,1,0.00,,,0.00,WUHU216HW,2013-07-10 22:45:00,
2013-07-10 17:50:00,71.6,12.2,29.92,North,0,0.0,0.0,1,0.00,,,0.00,WUHU216HW,2013-07-10 22:50:00,
2013-07-10 17:55:00,71.5,12.1,29.92,North,0,0.0,0.0,1,0.00,,,0.00,WUHU216HW,2013-07-10 22:55:00,
2013-07-10 18:00:00,71.5,12.1,29.92,North,0,0.0,0.0,1,0.00,,,0.00,WUHU216HW,2013-07-10 23:00:00,
2013-07-10 18:05:00,71.5,12.1,29.92,North,0,0.0,0.0,1,0.00,,,0.00,WUHU216HW,2013-07-10 23:05:00,
2013-07-10 18:10:00,71.6,12.2,29.93,North,0,0.0,0.0,1,0.00,,,0.00,WUHU216HW,2013-07-10 23:10:00,
2013-07-10 18:15:00,71.6,12.2,29.93,North,0,0.0,0.0,1,0.00,,,0.00,WUHU216HW,2013-07-10 23:15:00,
2013-07-10 18:20:00,71.6,12.2,29.93,North,0,0.0,0.0,1,0.00,,,0.00,WUHU216HW,2013-07-10 23:20:00,
2013-07-10 18:25:00,71.6,12.2,29.93,North,0,0.0,0.0,1,0.00,,,0.00,WUHU216HW,2013-07-10 23:25:00,
2013-07-10 18:30:00,71.6,12.2,29.93,North,0,0.0,0.0,1,0.00,,,0.00,WUHU216HW,2013-07-10 23:30:00,
2013-07-10 18:35:00,71.5,12.1,29.93,North,0,0.0,0.0,1,0.00,,,0.00,WUHU216HW,2013-07-10 23:35:00,
2013-07-10 18:40:00,71.5,12.1,29.93,North,0,0.0,0.0,1,0.00,,,0.00,WUHU216HW,2013-07-10 23:40:00,
2013-07-10 18:45:00,71.5,12.1,29.93,North,0,0.0,0.0,1,0.00,,,0.00,WUHU216HW,2013-07-10 23:45:00,
2013-07-10 18:50:00,71.5,12.1,29.94,North,0,0.0,0.0,1,0.00,,,0.00,WUHU216HW,2013-07-10 23:50:00,
2013-07-10 18:55:00,71.5,12.1,29.94,North,0,0.0,0.0,1,0.00,,,0.00,WUHU216HW,2013-07-10 23:55:00,
2013-07-10 19:00:00,71.5,12.1,29.94,North,0,0.0,0.0,1,0.00,,,0.00,WUHU216HW,2013-07-11 00:00:00,
2013-07-10 19:05:00,71.6,12.2,29.95,North,0,0.0,0.0,1,0.00,,,0.00,WUHU216HW,2013-07-11 00:05:00,
2013-07-10 19:10:00,71.6,12.2,29.95,North,0,0.0,0.0,1,0.00,,,0.00,WUHU216HW,2013-07-11 00:10:00,
2013-07-10 19:15:00,71.6,12.2,29.95,North,0,0.0,0.0,1,0.00,,,0.00,WUHU216HW,2013-07-11 00:15:00,
2013-07-10 19:20:00,71.5,12.1,29.95,North,0,0.0,0.0,1,0.00,,,0.00,WUHU216HW,2013-07-11 00:20:00,
2013-07-10 19:25:00,71.5,12.1,29.95,North,0,0.0,0.0,1,0.00,,,0.00,WUHU216HW,2013-07-11 00:25:00,
2013-07-10 19:30:00,71.5,12.1,29.95,North,0,0.0,0.0,1,0.00,,,0.00,WUHU216HW,2013-07-11 00:30:00,
2013-07-10 19:35:00,71.5,12.1,29.95,North,0,0.0,0.0,1,0.00,,,0.00,WUHU216HW,2013-07-11 00:35:00,
2013-07-10 19:40:00,71.3,12.0,29.95,North,0,0.0,0.0,1,0.00,,,0.00,WUHU216HW,2013-07-11 00:40:00,
2013-07-10 19:45:00,71.3,12.0,29.94,North,0,0.0,0.0,1,0.00,,,0.00,WUHU216HW,2013-07-11 00:45:00,
2013-07-10 19:50:00,71.1,11.8,29.94,North,0,0.0,0.0,1,0.00,,,0.00,WUHU216HW,2013-07-11 00:50:00,
2013-07-10 19:55:00,71.1,11.8,29.94,North,0,0.0,0.0,1,0.00,,,0.00,WUHU216HW,2013-07-11 00:55:00,
2013-07-10 20:00:00,71.1,11.8,29.94,North,0,0.0,0.0,1,0.00,,,0.00,WUHU216HW,2013-07-11 01:00:00,
2013-07-10 20:05:00,71.1,11.8,29.94,North,0,0.0,0.0,1,0.00,,,0.00,WUHU216HW,2013-07-11 01:05:00,
2013-07-10 20:10:00,70.9,11.7,29.94,North,0,0.0,0.0,1,0.00,,,0.00,WUHU216HW,2013-07-11 01:10:00,
2013-07-10 20:15:00,70.9,11.7,29.93,North,0,0.0,0.0,1,0.00,,,0.00,WUHU216HW,2013-07-11 01:15:00,
2013-07-10 20:20:00,70.9,11.7,29.93,North,0,0.0,0.0,1,0.00,,,0.00,WUHU216HW,2013-07-11 01:20:00,
2013-07-10 20:25:00,70.7,11.5,29.92,North,0,0.0,0.0,1,0.00,,,0.00,WUHU216HW,2013-07-11 01:25:00,
2013-07-10 20:30:00,70.7,11.5,29.91,North,0,0.0,0.0,1,0.00,,,0.00,WUHU216HW,2013-07-11 01:30:00,
2013-07-10 20:35:00,70.6,11.3,29.90,North,0,0.0,0.0,1,0.00,,,0.00,WUHU216HW,2013-07-11 01:35:00,
2013-07-10 20:40:00,70.6,11.3,29.90,North,0,0.0,0.0,1,0.00,,,0.00,WUHU216HW,2013-07-11 01:40:00,
2013-07-10 20:45:00,70.6,11.3,29.90,North,0,0.0,0.0,1,0.00,,,0.00,WUHU216HW,2013-07-11 01:45:00,
2013-07-10 20:50:00,70.6,11.3,29.90,North,0,0.0,0.0,1,0.00,,,0.00,WUHU216HW,2013-07-11 01:50:00,
2013-07-10 20:55:00,70.6,11.3,29.90,North,0,0.0,0.0,1,0.00,,,0.00,WUHU216HW,2013-07-11 01:55:00,
2013-07-10 21:00:00,70.4,11.3,29.90,North,0,0.0,0.0,1,0.00,,,0.00,WUHU216HW,2013-07-11 02:00:00,
2013-07-10 21:05:00,70.4,11.3,29.89,North,0,0.0,0.0,1,0.00,,,0.00,WUHU216HW,2013-07-11 02:05:00,
2013-07-10 21:10:00,70.2,11.1,29.89,North,0,0.0,0.0,1,0.00,,,0.00,WUHU216HW,2013-07-11 02:10:00,
2013-07-10 21:15:00,70.2,11.1,29.88,North,0,0.0,0.0,1,0.00,,,0.00,WUHU216HW,2013-07-11 02:15:00,
2013-07-10 21:20:00,70.2,11.1,29.88,North,0,0.0,0.0,1,0.00,,,0.00,WUHU216HW,2013-07-11 02:20:00,
2013-07-10 21:25:00,70.2,11.1,29.88,North,0,0.0,0.0,1,0.00,,,0.00,WUHU216HW,2013-07-11 02:25:00,
2013-07-10 21:30:00,70.0,11.0,29.89,North,0,0.0,0.0,1,0.00,,,0.00,WUHU216HW,2013-07-11 02:30:00,
2013-07-10 21:35:00,70.0,11.0,29.89,North,0,0.0,0.0,1,0.00,,,0.00,WUHU216HW,2013-07-11 02:35:00,
2013-07-10 21:40:00,70.0,11.0,29.89,North,0,0.0,0.0,1,0.00,,,0.00,WUHU216HW,2013-07-11 02:40:00,
2013-07-10 21:45:00,70.0,11.0,29.89,North,0,0.0,0.0,1,0.00,,,0.00,WUHU216HW,2013-07-11 02:45:00,
2013-07-10 21:50:00,70.0,11.0,29.90,North,0,0.0,0.0,1,0.00,,,0.00,WUHU216HW,2013-07-11 02:50:00,
2013-07-10 21:55:00,70.0,11.0,29.90,North,0,0.0,0.0,1,0.00,,,0.00,WUHU216HW,2013-07-11 02:55:00,
2013-07-10 22:00:00,70.0,11.0,29.89,North,0,0.0,0.0,1,0.00,,,0.00,WUHU216HW,2013-07-11 03:00:00,
2013-07-10 22:05:00,70.0,11.0,29.90,North,0,0.0,0.0,1,0.00,,,0.00,WUHU216HW,2013-07-11 03:05:00,
2013-07-10 22:10:00,70.2,11.1,29.90,North,0,0.0,0.0,1,0.00,,,0.00,WUHU216HW,2013-07-11 03:10:00,
2013-07-10 22:15:00,70.2,11.1,29.90,North,0,0.0,0.0,1,0.00,,,0.00,WUHU216HW,2013-07-11 03:15:00,
2013-07-10 22:20:00,70.2,11.1,29.90,North,0,0.0,0.0,1,0.00,,,0.00,WUHU216HW,2013-07-11 03:20:00,
2013-07-10 22:25:00,70.4,11.3,29.90,North,0,0.0,0.0,1,0.00,,,0.00,WUHU216HW,2013-07-11 03:25:00,
2013-07-10 22:30:00,70.4,11.3,29.90,North,0,0.0,0.0,1,0.00,,,0.00,WUHU216HW,2013-07-11 03:30:00,
2013-07-10 22:35:00,70.6,11.3,29.91,North,0,0.0,0.0,1,0.00,,,0.00,WUHU216HW,2013-07-11 03:35:00,
2013-07-10 22:40:00,70.6,11.3,29.90,North,0,0.0,0.0,1,0.00,,,0.00,WUHU216HW,2013-07-11 03:40:00,
2013-07-10 22:45:00,70.6,11.3,29.90,North,0,0.0,0.0,1,0.00,,,0.00,WUHU216HW,2013-07-11 03:45:00,
2013-07-10 22:50:00,70.6,11.3,29.90,North,0,0.0,0.0,1,0.00,,,0.00,WUHU216HW,2013-07-11 03:50:00,
2013-07-10 22:55:00,70.6,11.3,29.90,North,0,0.0,0.0,1,0.00,,,0.00,WUHU216HW,2013-07-11 03:55:00,
2013-07-10 23:00:00,70.6,11.3,29.90,North,0,0.0,0.0,1,0.00,,,0.00,WUHU216HW,2013-07-11 04:00:00,
2013-07-10 23:01:00,70.6,11.3,29.90,North,0,0.0,0.0,1,0.00,,,0.00,WUHU216HW,2013-07-11 04:01:00,
2013-07-10 23:06:00,70.6,11.3,29.90,North,0,0.0,0.0,1,0.00,,,0.00,WUHU216HW,2013-07-11 04:06:00,
2013-07-10 23:11:00,70.6,11.3,29.90,North,0,0.0,0.0,1,0.00,,,0.00,WUHU216HW,2013-07-11 04:11:00,
2013-07-10 23:16:00,70.6,11.3,29.90,North,0,0.0,0.0,1,0.00,,,0.00,WUHU216HW,2013-07-11 04:16:00,
2013-07-10 23:21:00,70.6,11.3,29.90,North,0,0.0,0.0,1,0.00,,,0.00,WUHU216HW,2013-07-11 04:21:00,
2013-07-10 23:26:00,70.6,11.3,29.90,North,0,0.0,0.0,1,0.00,,,0.00,WUHU216HW,2013-07-11 04:26:00,
2013-07-10 23:31:00,70.6,11.3,29.90,North,0,0.0,0.0,1,0.00,,,0.00,WUHU216HW,2013-07-11 04:31:00,
2013-07-10 23:36:00,70.6,11.3,29.90,North,0,0.0,0.0,1,0.00,,,0.00,WUHU216HW,2013-07-11 04:36:00,
2013-07-10 23:41:00,70.6,11.3,29.90,North,0,0.0,0.0,1,0.00,,,0.00,WUHU216HW,2013-07-11 04:41:00,
2013-07-10 23:46:00,70.6,11.3,29.90,North,0,0.0,0.0,1,0.00,,,0.00,WUHU216HW,2013-07-11 04:46:00,
2013-07-10 23:51:00,70.6,11.3,29.90,North,0,0.0,0.0,1,0.00,,,0.00,WUHU216HW,2013-07-11 04:51:00,
2013-07-10 23:56:00,70.6,11.3,29.91,North,0,0.0,0.0,1,0.00,,,0.00,WUHU216HW,2013-07-11 04:56:00,